Regional Weather Roundup
Issued by NWS Green Bay, WI

Home | Current Version | Previous Version | Graphics & Text | Print | Product List | Glossary Off
Versions: 1 2 3 4 5 6 7 8 9 10 11 12 13 14 15 16 17 18 19 20 21 22 23 24 25 26 27 28 29 30 31 32 33 34 35 36 37 38 39 40 41 42 43 44 45 46 47 48 49 50

000
ASUS43 KGRB 010759
RWRGRB

NORTH-CENTRAL AND NORTHEAST WISCONSIN REGIONAL WEATHER ROUNDUP
NATIONAL WEATHER SERVICE GREEN BAY WI
200 AM CST SUN FEB 01 2015

WIZ005-009-010>012-018-019-010900-
NORTH CENTRAL WISCONSIN

CITY           SKY/WX    TMP DP  RH WIND       PRES   REMARKS
IRONWOOD       CLOUDY     5   0  78 E10       30.31R WCI -10
MANITOWISH WTR NOT AVBL
ARBOR VITAE    NOT AVBL
EAGLE RIVER    NOT AVBL
LAND O LAKES   NOT AVBL
RHINELANDER    CLOUDY     5  -1  76 NE8       30.26S WCI  -8
PHILLIPS       NOT AVBL
ANTIGO         NOT AVBL
TOMAHAWK       NOT AVBL
MERRILL        NOT AVBL
$$

WIZ013-073-010900-
NORTHEAST WISCONSIN

CITY           SKY/WX    TMP DP  RH WIND       PRES   REMARKS
IRON MOUNTAIN  CLOUDY     7   0  73 NW7       30.30S WCI  -5
MARINETTE      CLOUDY    10   3  72 N9        30.31F WCI  -2
$$

WIZ017-030-035>037-045-010900-
CENTRAL WISCONSIN

CITY           SKY/WX    TMP DP  RH WIND       PRES   REMARKS
MEDFORD        NOT AVBL
WAUSAU         CLOUDY    14   6  70 E15       30.22S WCI  -1
MOSINEE        NOT AVBL
MARSHFIELD     CLOUDY    18   9  68 E15       30.18R WCI   4
WISC RAPIDS    LGT SNOW  17  12  80 E15       30.22R WCI   2
STEVENS POINT  NOT AVBL
WAUPACA        NOT AVBL
SHAWANO        NOT AVBL
CLINTONVILLE   NOT AVBL
$$

WIZ038-039-048-051-010900-
FOX VALLEY

CITY           SKY/WX    TMP DP  RH WIND       PRES   REMARKS
NWS GREEN BAY  CLOUDY    15   6  67 NE23      30.28F WCI  -3
APPLETON       NOT AVBL
OSHKOSH        LGT SNOW  15  11  83 NE18G24   30.22F FOG     WCI  -2
FOND DU LAC    LGT SNOW  18  13  80 NE16      30.21F WCI   3
$$

WIZ022-050-052-010900-
EAST CENTRAL WISCONSIN

CITY           SKY/WX    TMP DP  RH WIND       PRES   REMARKS
STURGEON BAY   CLOUDY    12   5  73 N15       30.30F WCI  -4
MANITOWOC      NOT AVBL
SHEBOYGAN      LGT SNOW  19  16  88 N12       30.20F VSB 1   WCI   7
$$

LMZ563-521-522-541>543-010900-
LAKESHORE

STATION/POSITION TIME  TEMP    WIND        PRES    VSBY  WAVE
                       AIR SEA DIR/SP/G                  HT/PER
                 (UTC) (F)     (DEG/KT/KT) (MB)    (MI)  (FT/S)
SHEBOYGAN LKSHOR 0700   25      30/ 26/ 28 1024.4F
KEWAUNEE LKSHORE 0700   15      10/ 10/ 15 1024.7S
NORTHPORT PIER   0700   15     360/ 11/ 15 1026.8R
CHAMBERS ISLAND  0700   12     330/ 13/ 16 1027.1R
MENOMINEE LKSHOR 0700   12     340/ 12     1027.4F
$$


USA.gov is the U.S. government's official web portal to all federal, state and local government web resources and services.